| time (UTC) | temp F | wind direction | speed knots | gust knots | rain 1hr in | rain 24hr in | rain mn in | humidity % | barometer mb |
| 20260505210534 | 73 | 66 | 1.7 | 12.2 | 0.00 | 0.00 | 0.00 | 34 | 1007.5 |
| 20260505210034 | 73 | 54 | 2.6 | 11.3 | 0.00 | 0.00 | 0.00 | 33 | 1007.6 |
| 20260505205534 | 74 | 286 | 2.6 | 9.6 | 0.00 | 0.00 | 0.00 | 33 | 1007.7 |
| 20260505205034 | 73 | 53 | 2.6 | 10.4 | 0.00 | 0.00 | 0.00 | 34 | 1007.7 |
| 20260505204536 | 74 | 324 | 4.3 | 10.4 | 0.00 | 0.00 | 0.00 | 35 | 1007.8 |
| 20260505204032 | 73 | 26 | 3.5 | 8.7 | 0.00 | 0.00 | 0.00 | 36 | 1007.7 |
| 20260505203532 | 73 | 123 | 2.6 | 8.7 | 0.00 | 0.00 | 0.00 | 34 | 1007.7 |
| 20260505203037 | 73 | 46 | 4.3 | 8.7 | 0.00 | 0.00 | 0.00 | 35 | 1007.8 |
| 20260505202531 | 74 | 325 | 2.6 | 10.4 | 0.00 | 0.00 | 0.00 | 35 | 1007.9 |
| 20260505202031 | 73 | 10 | 1.7 | 10.4 | 0.00 | 0.00 | 0.00 | 35 | 1007.9 |
| 20260505201544 | 72 | 40 | 3.5 | 9.6 | 0.00 | 0.00 | 0.00 | 36 | 1007.9 |
| 20260505201029 | 72 | 42 | 2.6 | 7.8 | 0.00 | 0.00 | 0.00 | 37 | 1007.8 |
| 20260505200529 | 72 | 42 | 3.5 | 7.8 | 0.00 | 0.00 | 0.00 | 38 | 1007.9 |
| 20260505200030 | 72 | 76 | 3.5 | 10.4 | 0.00 | 0.00 | 0.00 | 37 | 1007.9 |
| 20260505195528 | 72 | 28 | 5.2 | 10.4 | 0.00 | 0.00 | 0.00 | 36 | 1008.0 |
| 20260505195027 | 72 | 11 | 1.7 | 7.8 | 0.00 | 0.00 | 0.00 | 37 | 1008.0 |
| 20260505194526 | 71 | 350 | 3.5 | 7.8 | 0.00 | 0.00 | 0.00 | 40 | 1008.1 |
| 20260505194026 | 70 | 11 | 2.6 | 8.7 | 0.00 | 0.00 | 0.00 | 39 | 1008.0 |
| 20260505193524 | 71 | 19 | 4.3 | 8.7 | 0.00 | 0.00 | 0.00 | 38 | 1008.0 |
| 20260505193040 | 71 | 32 | 0.9 | 9.6 | 0.00 | 0.00 | 0.00 | 38 | 1008.1 |
| 20260505192524 | 71 | 32 | 3.5 | 10.4 | 0.00 | 0.00 | 0.00 | 37 | 1008.1 |
| 20260505192028 | 71 | 340 | 0.9 | 8.7 | 0.00 | 0.00 | 0.00 | 39 | 1008.1 |
| 20260505191523 | 71 | 298 | 1.7 | 10.4 | 0.00 | 0.00 | 0.00 | 38 | 1008.1 |
| 20260505191023 | 70 | 319 | 4.3 | 10.4 | 0.00 | 0.00 | 0.00 | 38 | 1008.1 |
| 20260505190523 | 71 | 18 | 2.6 | 10.4 | 0.00 | 0.00 | 0.00 | 38 | 1008.1 |
| 20260505190030 | 70 | 42 | 4.3 | 10.4 | 0.00 | 0.00 | 0.00 | 37 | 1008.2 |
| 20260505185522 | 71 | 13 | 1.7 | 7.8 | 0.00 | 0.00 | 0.00 | 39 | 1008.1 |
| 20260505185022 | 71 | 344 | 2.6 | 8.7 | 0.00 | 0.00 | 0.00 | 40 | 1008.3 |
| 20260505184524 | 70 | 40 | 1.7 | 8.7 | 0.00 | 0.00 | 0.00 | 40 | 1008.2 |
| 20260505184020 | 69 | 36 | 1.7 | 8.7 | 0.00 | 0.00 | 0.00 | 40 | 1008.1 |
| 20260505183518 | 69 | 43 | 2.6 | 7.8 | 0.00 | 0.00 | 0.00 | 40 | 1008.1 |
| 20260505183027 | 69 | 15 | 2.6 | 7.8 | 0.00 | 0.00 | 0.00 | 42 | 1008.1 |
| 20260505182517 | 69 | 43 | 2.6 | 5.2 | 0.00 | 0.00 | 0.00 | 41 | 1008.1 |
| 20260505182017 | 68 | 31 | 0.0 | 8.7 | 0.00 | 0.00 | 0.00 | 43 | 1008.1 |
| 20260505181518 | 68 | 28 | 3.5 | 8.7 | 0.00 | 0.00 | 0.00 | 41 | 1008.2 |
| 20260505181021 | 68 | 20 | 0.0 | 7.0 | 0.00 | 0.00 | 0.00 | 44 | 1008.1 |
| 20260505180515 | 68 | 306 | 1.7 | 7.0 | 0.00 | 0.00 | 0.00 | 42 | 1008.1 |
| 20260505180030 | 68 | 326 | 0.9 | 7.0 | 0.00 | 0.00 | 0.00 | 43 | 1008.0 |
| 20260505175515 | 66 | 22 | 2.6 | 7.0 | 0.00 | 0.00 | 0.00 | 44 | 1008.0 |
| 20260505175023 | 66 | 290 | 1.7 | 6.1 | 0.00 | 0.00 | 0.00 | 45 | 1008.0 |
| 20260505174522 | 66 | 259 | 2.6 | 6.1 | 0.00 | 0.00 | 0.00 | 44 | 1008.1 |
| 20260505174016 | 67 | 329 | 2.6 | 5.2 | 0.00 | 0.00 | 0.00 | 42 | 1008.1 |
| 20260505173515 | 68 | 42 | 1.7 | 5.2 | 0.00 | 0.00 | 0.00 | 42 | 1008.1 |
| 20260505173012 | 67 | 360 | 0.9 | 3.5 | 0.00 | 0.00 | 0.00 | 43 | 1008.0 |
| 20260505172511 | 67 | 5 | 0.0 | 3.5 | 0.00 | 0.00 | 0.00 | 43 | 1008.0 |
| 20260505172020 | 67 | 5 | 0.9 | 3.5 | 0.00 | 0.00 | 0.00 | 43 | 1008.0 |
| 20260505171523 | 66 | 55 | 0.0 | 4.3 | 0.00 | 0.00 | 0.00 | 44 | 1008.1 |
| 20260505171011 | 66 | 63 | 1.7 | 7.8 | 0.00 | 0.00 | 0.00 | 44 | 1008.1 |
| 20260505170516 | 66 | 25 | 0.9 | 7.8 | 0.00 | 0.00 | 0.00 | 45 | 1008.1 |
| 20260505170014 | 66 | 28 | 3.5 | 7.0 | 0.00 | 0.00 | 0.00 | 44 | 1008.1 |
| 20260505165512 | 66 | 351 | 0.0 | 7.0 | 0.00 | 0.00 | 0.00 | 45 | 1008.0 |
| 20260505165009 | 65 | 25 | 1.7 | 7.0 | 0.00 | 0.00 | 0.00 | 45 | 1008.1 |
| 20260505164516 | 66 | 9 | 1.7 | 5.2 | 0.00 | 0.00 | 0.00 | 44 | 1008.0 |
| 20260505164007 | 66 | 32 | 1.7 | 7.0 | 0.00 | 0.00 | 0.00 | 45 | 1008.0 |
| 20260505163508 | 66 | 360 | 1.7 | 7.0 | 0.00 | 0.00 | 0.00 | 44 | 1008.0 |
| 20260505163009 | 65 | 38 | 0.9 | 4.3 | 0.00 | 0.00 | 0.00 | 46 | 1008.0 |
| 20260505162506 | 64 | 317 | 0.0 | 2.6 | 0.00 | 0.00 | 0.00 | 47 | 1007.9 |
| 20260505162006 | 64 | 317 | 0.9 | 3.5 | 0.00 | 0.00 | 0.00 | 48 | 1007.9 |
| 20260505161506 | 64 | 317 | 0.9 | 3.5 | 0.00 | 0.00 | 0.00 | 47 | 1007.9 |
| 20260505161006 | 64 | 317 | 0.0 | 4.3 | 0.00 | 0.00 | 0.00 | 48 | 1007.9 |
| 20260505160506 | 65 | 317 | 0.9 | 4.3 | 0.00 | 0.00 | 0.00 | 46 | 1007.9 |
| 20260505153002 | 63 | 92 | 1.7 | 3.5 | 0.00 | 0.00 | 0.00 | 46 | 1007.9 |
| 20260505152601 | 63 | 92 | 0.9 | 2.6 | 0.00 | 0.00 | 0.00 | 45 | 1007.9 |
| 20260505152101 | 63 | 92 | 0.9 | 3.5 | 0.00 | 0.00 | 0.00 | 45 | 1007.8 |
| 20260505151558 | 63 | 92 | 0.9 | 3.5 | 0.00 | 0.00 | 0.00 | 46 | 1007.8 |
| 20260505151058 | 62 | 92 | 0.9 | 3.5 | 0.00 | 0.00 | 0.00 | 46 | 1007.8 |
| 20260505150558 | 62 | 100 | 0.9 | 3.5 | 0.00 | 0.00 | 0.00 | 46 | 1007.8 |
| 20260505150114 | 62 | 108 | 1.7 | 3.5 | 0.00 | 0.00 | 0.00 | 47 | 1007.8 |
| 20260505140548 | 60 | 213 | 0.0 | 0.0 | 0.00 | 0.00 | 0.00 | 43 | 1007.2 |
| 20260505124542 | 57 | 215 | 0.0 | 0.0 | 0.00 | 0.00 | 0.00 | 48 | 1006.6 |
| 20260505124043 | 56 | 215 | 0.0 | 0.0 | 0.00 | 0.00 | 0.00 | 48 | 1006.7 |
| 20260505123542 | 56 | 215 | 0.0 | 0.0 | 0.00 | 0.00 | 0.00 | 48 | 1006.6 |
| 20260505123104 | 56 | 215 | 0.0 | 0.0 | 0.00 | 0.00 | 0.00 | 48 | 1006.6 |
| 20260505122540 | 56 | 215 | 0.0 | 0.0 | 0.00 | 0.00 | 0.00 | 48 | 1006.5 |
| 20260505122040 | 56 | 215 | 0.0 | 0.0 | 0.00 | 0.00 | 0.00 | 48 | 1006.5 |
| 20260505121541 | 56 | 215 | 0.0 | 0.0 | 0.00 | 0.00 | 0.00 | 48 | 1006.5 |
| 20260505121042 | 56 | 215 | 0.0 | 0.0 | 0.00 | 0.00 | 0.00 | 48 | 1006.4 |
| 20260505120539 | 57 | 215 | 0.0 | 0.0 | 0.00 | 0.00 | 0.00 | 48 | 1006.4 |
| 20260505120047 | 57 | 215 | 0.0 | 0.0 | 0.00 | 0.00 | 0.00 | 48 | 1006.3 |
| 20260505115536 | 57 | 215 | 0.0 | 0.0 | 0.00 | 0.00 | 0.00 | 47 | 1006.3 |
| 20260505115035 | 57 | 215 | 0.0 | 0.0 | 0.00 | 0.00 | 0.00 | 47 | 1006.2 |
| 20260505114546 | 58 | 215 | 0.0 | 0.0 | 0.00 | 0.00 | 0.00 | 47 | 1006.1 |
| 20260505114034 | 58 | 215 | 0.0 | 0.0 | 0.00 | 0.00 | 0.00 | 47 | 1006.1 |
| 20260505113533 | 58 | 215 | 0.0 | 0.0 | 0.00 | 0.00 | 0.00 | 47 | 1006.1 |
| 20260505113032 | 58 | 215 | 0.0 | 0.0 | 0.00 | 0.00 | 0.00 | 47 | 1006.0 |
| 20260505112532 | 58 | 215 | 0.0 | 0.0 | 0.00 | 0.00 | 0.00 | 46 | 1006.1 |
| 20260505112031 | 58 | 215 | 0.0 | 0.0 | 0.00 | 0.00 | 0.00 | 46 | 1006.0 |
| 20260505111531 | 57 | 215 | 0.0 | 0.0 | 0.00 | 0.00 | 0.00 | 46 | 1005.9 |
| 20260505111031 | 57 | 215 | 0.0 | 0.0 | 0.00 | 0.00 | 0.00 | 46 | 1005.9 |
| 20260505110531 | 57 | 215 | 0.0 | 0.0 | 0.00 | 0.00 | 0.00 | 46 | 1005.9 |
| 20260505102025 | 58 | 215 | 0.0 | 1.7 | 0.00 | 0.00 | 0.00 | 45 | 1005.8 |
| 20260505101525 | 58 | 215 | 0.0 | 1.7 | 0.00 | 0.00 | 0.00 | 44 | 1005.7 |
| 20260505101025 | 58 | 215 | 0.0 | 0.0 | 0.00 | 0.00 | 0.00 | 44 | 1005.8 |
| 20260505100524 | 59 | 215 | 0.0 | 0.0 | 0.00 | 0.00 | 0.00 | 43 | 1005.8 |
| 20260505100030 | 59 | 215 | 0.0 | 0.0 | 0.00 | 0.00 | 0.00 | 44 | 1005.7 |
| 20260505095522 | 59 | 215 | 0.0 | 0.0 | 0.00 | 0.00 | 0.00 | 43 | 1005.7 |
| 20260505095022 | 59 | 215 | 0.0 | 0.0 | 0.00 | 0.00 | 0.00 | 43 | 1005.7 |
| 20260505094522 | 59 | 215 | 0.0 | 0.0 | 0.00 | 0.00 | 0.00 | 43 | 1005.7 |
| 20260505094021 | 59 | 215 | 0.0 | 0.0 | 0.00 | 0.00 | 0.00 | 43 | 1005.7 |
| 20260505093521 | 59 | 215 | 0.0 | 0.0 | 0.00 | 0.00 | 0.00 | 43 | 1005.7 |
| 20260505093021 | 59 | 215 | 0.0 | 0.9 | 0.00 | 0.00 | 0.00 | 42 | 1005.7 |
| 20260505092521 | 59 | 215 | 0.0 | 2.6 | 0.00 | 0.00 | 0.00 | 43 | 1005.5 |
| 20260505092021 | 59 | 215 | 0.0 | 1.7 | 0.00 | 0.00 | 0.00 | 42 | 1005.5 |
| 20260505091530 | 59 | 215 | 0.0 | 1.7 | 0.00 | 0.00 | 0.00 | 43 | 1005.6 |
| 20260505091020 | 59 | 215 | 0.0 | 0.9 | 0.00 | 0.00 | 0.00 | 43 | 1005.5 |
| 20260505090520 | 59 | 215 | 0.0 | 4.3 | 0.00 | 0.00 | 0.00 | 43 | 1005.5 |
| 20260505090036 | 59 | 215 | 0.9 | 4.3 | 0.00 | 0.00 | 0.00 | 42 | 1005.5 |
| 20260505085519 | 59 | 215 | 0.9 | 4.3 | 0.00 | 0.00 | 0.00 | 43 | 1005.4 |
| 20260505085019 | 59 | 215 | 0.0 | 2.6 | 0.00 | 0.00 | 0.00 | 43 | 1005.4 |
| 20260505084522 | 59 | 215 | 0.0 | 2.6 | 0.00 | 0.00 | 0.00 | 42 | 1005.5 |
| 20260505084017 | 59 | 215 | 0.0 | 1.7 | 0.00 | 0.00 | 0.00 | 42 | 1005.6 |
| 20260505083517 | 59 | 215 | 0.0 | 1.7 | 0.00 | 0.00 | 0.00 | 41 | 1005.7 |
| 20260505083015 | 59 | 215 | 0.0 | 0.9 | 0.00 | 0.00 | 0.00 | 41 | 1005.6 |
| 20260505082514 | 60 | 215 | 0.0 | 0.9 | 0.00 | 0.00 | 0.00 | 40 | 1005.6 |
| 20260505082014 | 60 | 215 | 0.0 | 0.0 | 0.00 | 0.00 | 0.00 | 40 | 1005.6 |
| 20260505081516 | 60 | 215 | 0.0 | 0.0 | 0.00 | 0.00 | 0.00 | 39 | 1005.7 |
| 20260505081014 | 60 | 215 | 0.0 | 0.0 | 0.00 | 0.00 | 0.00 | 39 | 1005.6 |
| 20260505080512 | 61 | 215 | 0.0 | 0.9 | 0.00 | 0.00 | 0.00 | 39 | 1005.7 |
| 20260505080016 | 60 | 215 | 0.0 | 2.6 | 0.00 | 0.00 | 0.00 | 39 | 1005.7 |
| 20260505075512 | 60 | 215 | 0.0 | 2.6 | 0.00 | 0.00 | 0.00 | 40 | 1005.7 |
| 20260505075011 | 60 | 215 | 0.0 | 0.0 | 0.00 | 0.00 | 0.00 | 39 | 1005.7 |
| 20260505074510 | 60 | 215 | 0.0 | 0.0 | 0.00 | 0.00 | 0.00 | 39 | 1005.6 |
| 20260505074011 | 60 | 215 | 0.0 | 2.6 | 0.00 | 0.00 | 0.00 | 39 | 1005.6 |
| 20260505073509 | 60 | 215 | 0.0 | 4.3 | 0.00 | 0.00 | 0.00 | 39 | 1005.6 |
| 20260505073014 | 60 | 215 | 1.7 | 5.2 | 0.00 | 0.00 | 0.00 | 39 | 1005.5 |
| 20260505072507 | 60 | 215 | 2.6 | 5.2 | 0.00 | 0.00 | 0.00 | 39 | 1005.6 |
| 20260505072008 | 60 | 322 | 0.0 | 0.0 | 0.00 | 0.00 | 0.00 | 40 | 1005.5 |
| 20260505071508 | 60 | 323 | 0.0 | 0.0 | 0.00 | 0.00 | 0.00 | 39 | 1005.5 |
| 20260505071006 | 60 | 323 | 0.0 | 0.0 | 0.00 | 0.00 | 0.00 | 39 | 1005.4 |
| 20260505070505 | 60 | 323 | 0.0 | 0.0 | 0.00 | 0.00 | 0.00 | 39 | 1005.4 |
| 20260505070004 | 60 | 323 | 0.0 | 0.0 | 0.00 | 0.00 | 0.00 | 39 | 1005.4 |
| 20260505065504 | 60 | 323 | 0.0 | 0.0 | 0.00 | 0.00 | 0.00 | 39 | 1005.3 |
| 20260505065004 | 60 | 323 | 0.0 | 0.0 | 0.00 | 0.00 | 0.00 | 39 | 1005.2 |
| 20260505064503 | 60 | 323 | 0.0 | 0.0 | 0.00 | 0.00 | 0.00 | 38 | 1005.2 |
| 20260505064006 | 61 | 324 | 0.0 | 0.0 | 0.00 | 0.00 | 0.00 | 38 | 1005.1 |
| 20260505063506 | 61 | 324 | 0.0 | 0.0 | 0.00 | 0.00 | 0.00 | 38 | 1005.1 |
| 20260505063005 | 62 | 324 | 0.0 | 0.0 | 0.00 | 0.00 | 0.00 | 37 | 1005.0 |
| 20260505062503 | 62 | 324 | 0.0 | 0.0 | 0.00 | 0.00 | 0.00 | 37 | 1005.0 |
| 20260505062002 | 62 | 324 | 0.0 | 0.0 | 0.00 | 0.00 | 0.00 | 37 | 1005.0 |
| 20260505061507 | 63 | 324 | 0.0 | 1.7 | 0.00 | 0.00 | 0.00 | 36 | 1005.0 |
| 20260505061003 | 63 | 324 | 0.0 | 2.6 | 0.00 | 0.00 | 0.00 | 36 | 1004.9 |
| 20260505060508 | 63 | 324 | 0.9 | 2.6 | 0.00 | 0.00 | 0.00 | 36 | 1004.9 |
| 20260505060002 | 63 | 324 | 0.0 | 5.2 | 0.00 | 0.00 | 0.00 | 36 | 1004.8 |
| 20260505055502 | 63 | 325 | 0.0 | 5.2 | 0.00 | 0.00 | 0.00 | 37 | 1004.8 |
| 20260505055003 | 63 | 287 | 0.9 | 4.3 | 0.00 | 0.00 | 0.00 | 37 | 1004.8 |
| 20260505054502 | 63 | 305 | 0.0 | 4.3 | 0.00 | 0.00 | 0.00 | 37 | 1004.8 |
| 20260505054001 | 63 | 303 | 0.9 | 6.1 | 0.00 | 0.00 | 0.00 | 37 | 1004.7 |
| 20260505053501 | 63 | 302 | 0.9 | 6.1 | 0.00 | 0.00 | 0.00 | 37 | 1004.7 |
| 20260505053001 | 63 | 314 | 1.7 | 8.7 | 0.00 | 0.00 | 0.00 | 38 | 1004.7 |
| 20260505052502 | 63 | 306 | 2.6 | 8.7 | 0.00 | 0.00 | 0.00 | 39 | 1004.7 |
| 20260505052001 | 63 | 285 | 0.9 | 4.3 | 0.00 | 0.00 | 0.00 | 41 | 1004.7 |
| 20260505051500 | 63 | 284 | 0.0 | 2.6 | 0.00 | 0.00 | 0.00 | 42 | 1004.7 |
| 20260505051002 | 63 | 286 | 0.0 | 0.9 | 0.00 | 0.00 | 0.00 | 42 | 1004.7 |
| 20260505050600 | 64 | 286 | 0.0 | 1.7 | 0.00 | 0.00 | 0.00 | 43 | 1004.7 |
| 20260505050128 | 64 | 286 | 0.0 | 3.5 | 0.00 | 0.00 | 0.00 | 43 | 1004.6 |
| 20260505041610 | 66 | 290 | 0.9 | 6.1 | 0.00 | 0.00 | 0.00 | 35 | 1004.1 |
| 20260505041058 | 66 | 301 | 0.9 | 4.3 | 0.00 | 0.00 | 0.00 | 33 | 1004.0 |
| 20260505040601 | 66 | 50 | 0.0 | 1.7 | 0.00 | 0.00 | 0.00 | 29 | 1004.1 |
| 20260505035602 | 66 | 51 | 0.0 | 0.9 | 0.00 | 0.00 | 0.00 | 29 | 1003.9 |
| 20260505035057 | 66 | 51 | 0.0 | 1.7 | 0.00 | 0.00 | 0.00 | 29 | 1003.8 |
| 20260505034557 | 66 | 51 | 0.0 | 1.7 | 0.00 | 0.00 | 0.00 | 28 | 1003.7 |
| 20260505034058 | 67 | 51 | 0.0 | 2.6 | 0.00 | 0.00 | 0.00 | 28 | 1003.7 |
| 20260505033558 | 67 | 51 | 0.9 | 2.6 | 0.00 | 0.00 | 0.00 | 27 | 1003.7 |
| 20260505033057 | 67 | 51 | 0.0 | 1.7 | 0.00 | 0.00 | 0.00 | 27 | 1003.6 |
| 20260505032558 | 67 | 51 | 0.0 | 3.5 | 0.00 | 0.00 | 0.00 | 27 | 1003.5 |
| 20260505032100 | 68 | 51 | 0.0 | 3.5 | 0.00 | 0.00 | 0.00 | 27 | 1003.4 |
| 20260505031600 | 68 | 51 | 0.0 | 3.5 | 0.00 | 0.00 | 0.00 | 27 | 1003.3 |
| 20260505031056 | 69 | 51 | 0.9 | 4.3 | 0.00 | 0.00 | 0.00 | 26 | 1003.3 |
| 20260505030556 | 69 | 52 | 0.0 | 7.0 | 0.00 | 0.00 | 0.00 | 26 | 1003.3 |
| 20260505030056 | 69 | 360 | 2.6 | 7.0 | 0.00 | 0.00 | 0.00 | 26 | 1003.2 |
| 20260505025555 | 70 | 21 | 2.6 | 7.0 | 0.00 | 0.00 | 0.00 | 25 | 1003.2 |
| 20260505025056 | 70 | 37 | 3.5 | 10.4 | 0.00 | 0.00 | 0.00 | 25 | 1003.1 |
| 20260505024555 | 71 | 355 | 3.5 | 10.4 | 0.00 | 0.00 | 0.00 | 26 | 1003.0 |
| 20260505024054 | 71 | 28 | 3.5 | 10.4 | 0.00 | 0.00 | 0.00 | 26 | 1003.0 |
| 20260505023554 | 71 | 48 | 4.3 | 10.4 | 0.00 | 0.00 | 0.00 | 25 | 1002.9 |
| 20260505023055 | 71 | 26 | 2.6 | 10.4 | 0.00 | 0.00 | 0.00 | 25 | 1002.9 |
| 20260505022554 | 71 | 28 | 2.6 | 13.9 | 0.00 | 0.00 | 0.00 | 25 | 1002.9 |
| 20260505022054 | 72 | 29 | 4.3 | 13.9 | 0.00 | 0.00 | 0.00 | 26 | 1002.9 |
| 20260505021555 | 72 | 50 | 3.5 | 13.0 | 0.00 | 0.00 | 0.00 | 25 | 1002.9 |
| 20260505021053 | 72 | 19 | 7.0 | 13.0 | 0.00 | 0.00 | 0.00 | 25 | 1002.8 |
| 20260505020553 | 72 | 38 | 3.5 | 10.4 | 0.00 | 0.00 | 0.00 | 25 | 1002.8 |
| 20260505020054 | 73 | 20 | 3.5 | 11.3 | 0.00 | 0.00 | 0.00 | 25 | 1002.8 |
| 20260505015554 | 72 | 355 | 3.5 | 11.3 | 0.00 | 0.00 | 0.00 | 26 | 1002.8 |
| 20260505015053 | 72 | 32 | 4.3 | 12.2 | 0.00 | 0.00 | 0.00 | 25 | 1002.8 |
| 20260505014605 | 72 | 44 | 6.1 | 12.2 | 0.00 | 0.00 | 0.00 | 25 | 1002.8 |
| 20260505014053 | 73 | 27 | 2.6 | 7.8 | 0.00 | 0.00 | 0.00 | 26 | 1002.9 |
| 20260505013551 | 73 | 13 | 2.6 | 13.0 | 0.00 | 0.00 | 0.00 | 26 | 1002.9 |
| 20260505013052 | 73 | 40 | 6.1 | 13.0 | 0.00 | 0.00 | 0.00 | 26 | 1002.9 |
| 20260505012551 | 73 | 38 | 5.2 | 12.2 | 0.00 | 0.00 | 0.00 | 25 | 1002.9 |
| 20260505012051 | 73 | 51 | 1.7 | 11.3 | 0.00 | 0.00 | 0.00 | 26 | 1003.0 |
| 20260505011553 | 73 | 355 | 3.5 | 11.3 | 0.00 | 0.00 | 0.00 | 26 | 1002.9 |
| 20260505011051 | 73 | 23 | 2.6 | 9.6 | 0.00 | 0.00 | 0.00 | 27 | 1002.9 |
| 20260505010550 | 73 | 56 | 2.6 | 10.4 | 0.00 | 0.00 | 0.00 | 27 | 1003.0 |
| 20260505010050 | 73 | 22 | 2.6 | 10.4 | 0.00 | 0.00 | 0.00 | 28 | 1003.0 |
| 20260505005550 | 73 | 15 | 2.6 | 7.8 | 0.00 | 0.00 | 0.00 | 28 | 1003.1 |
| 20260505005050 | 73 | 5 | 2.6 | 7.8 | 0.00 | 0.00 | 0.00 | 28 | 1003.2 |
| 20260505004550 | 73 | 23 | 0.0 | 5.2 | 0.00 | 0.00 | 0.00 | 28 | 1003.2 |
| 20260505004049 | 73 | 26 | 1.7 | 5.2 | 0.00 | 0.00 | 0.00 | 28 | 1003.2 |
| 20260505003549 | 73 | 344 | 0.9 | 5.2 | 0.00 | 0.00 | 0.00 | 28 | 1003.2 |
| 20260505003049 | 74 | 355 | 1.7 | 4.3 | 0.00 | 0.00 | 0.00 | 28 | 1003.1 |
| 20260505002551 | 74 | 338 | 1.7 | 4.3 | 0.00 | 0.00 | 0.00 | 28 | 1003.1 |
| 20260505002049 | 74 | 327 | 0.9 | 4.3 | 0.00 | 0.00 | 0.00 | 28 | 1003.2 |
| 20260505001602 | 74 | 337 | 0.0 | 8.7 | 0.00 | 0.00 | 0.00 | 28 | 1003.0 |
| 20260505001048 | 75 | 26 | 1.7 | 8.7 | 0.00 | 0.00 | 0.00 | 28 | 1003.2 |
| 20260505000548 | 75 | 9 | 2.6 | 9.6 | 0.00 | 0.00 | 0.00 | 27 | 1003.2 |
| 20260505000105 | 77 | 42 | 4.3 | 11.3 | 0.00 | 0.00 | 0.00 | 26 | 1003.1 |
| 20260504235548 | 78 | 22 | 4.3 | 11.3 | 0.00 | 0.00 | 0.00 | 24 | 1003.0 |
| 20260504235047 | 79 | 323 | 3.5 | 9.6 | 0.00 | 0.00 | 0.00 | 24 | 1003.0 |
| 20260504234605 | 79 | 319 | 1.7 | 7.8 | 0.00 | 0.00 | 0.00 | 23 | 1003.1 |
| 20260504234046 | 79 | 74 | 1.7 | 9.6 | 0.00 | 0.00 | 0.00 | 24 | 1003.0 |
| 20260504233549 | 80 | 360 | 2.6 | 9.6 | 0.00 | 0.00 | 0.00 | 23 | 1003.0 |
| 20260504233050 | 79 | 284 | 3.5 | 10.4 | 0.00 | 0.00 | 0.00 | 23 | 1003.0 |
| 20260504232544 | 80 | 340 | 2.6 | 11.3 | 0.00 | 0.00 | 0.00 | 23 | 1003.2 |
| 20260504232042 | 79 | 328 | 6.1 | 11.3 | 0.00 | 0.00 | 0.00 | 23 | 1003.2 |
| 20260504231541 | 78 | 315 | 3.5 | 10.4 | 0.00 | 0.00 | 0.00 | 24 | 1003.3 |
| 20260504231041 | 77 | 31 | 0.9 | 7.0 | 0.00 | 0.00 | 0.00 | 25 | 1003.3 |
| 20260504230540 | 75 | 329 | 1.7 | 9.6 | 0.00 | 0.00 | 0.00 | 26 | 1003.5 |
| 20260504230041 | 75 | 13 | 1.7 | 10.4 | 0.00 | 0.00 | 0.00 | 27 | 1003.6 |
| 20260504225541 | 74 | 36 | 4.3 | 11.3 | 0.00 | 0.00 | 0.00 | 27 | 1003.5 |
| 20260504225043 | 75 | 42 | 4.3 | 11.3 | 0.00 | 0.00 | 0.00 | 26 | 1003.5 |
| 20260504224548 | 76 | 355 | 2.6 | 14.8 | 0.00 | 0.00 | 0.00 | 26 | 1003.5 |
| 20260504224039 | 75 | 15 | 3.5 | 14.8 | 0.00 | 0.00 | 0.00 | 26 | 1003.6 |
| 20260504223541 | 77 | 30 | 4.3 | 13.0 | 0.00 | 0.00 | 0.00 | 25 | 1003.6 |
| 20260504223043 | 78 | 26 | 6.1 | 12.2 | 0.00 | 0.00 | 0.00 | 24 | 1003.6 |
| 20260504222536 | 78 | 16 | 2.6 | 8.7 | 0.00 | 0.00 | 0.00 | 24 | 1003.6 |
| 20260504222036 | 77 | 283 | 3.5 | 8.7 | 0.00 | 0.00 | 0.00 | 25 | 1003.7 |
| 20260504221537 | 77 | 315 | 2.6 | 10.4 | 0.00 | 0.00 | 0.00 | 25 | 1003.8 |
| 20260504221035 | 78 | 12 | 3.5 | 11.3 | 0.00 | 0.00 | 0.00 | 24 | 1003.9 |
| 20260504220537 | 78 | 304 | 2.6 | 11.3 | 0.00 | 0.00 | 0.00 | 24 | 1004.0 |
| 20260504220036 | 77 | 284 | 4.3 | 11.3 | 0.00 | 0.00 | 0.00 | 25 | 1003.9 |
| 20260504215533 | 77 | 296 | 2.6 | 12.2 | 0.00 | 0.00 | 0.00 | 24 | 1004.0 |
| 20260504215031 | 77 | 301 | 3.5 | 12.2 | 0.00 | 0.00 | 0.00 | 25 | 1004.2 |
| 20260504214530 | 76 | 9 | 0.9 | 6.1 | 0.00 | 0.00 | 0.00 | 25 | 1004.1 |
| 20260504214030 | 77 | 318 | 0.9 | 10.4 | 0.00 | 0.00 | 0.00 | 24 | 1004.1 |
| 20260504213529 | 76 | 304 | 3.5 | 10.4 | 0.00 | 0.00 | 0.00 | 25 | 1004.1 |
| 20260504213050 | 77 | 313 | 5.2 | 12.2 | 0.00 | 0.00 | 0.00 | 25 | 1004.2 |
| 20260504212528 | 77 | 42 | 5.2 | 12.2 | 0.00 | 0.00 | 0.00 | 24 | 1004.2 |
| 20260504212027 | 77 | 248 | 2.6 | 8.7 | 0.00 | 0.00 | 0.00 | 24 | 1004.2 |
| 20260504211526 | 76 | 19 | 3.5 | 12.2 | 0.00 | 0.00 | 0.00 | 26 | 1004.2 |
| 20260504211025 | 76 | 290 | 5.2 | 12.2 | 0.00 | 0.00 | 0.00 | 26 | 1004.3 |